• In Romania
  • List of Countries
  • For 7 days
  • Water Temperature
  • Satellite Maps
  • Weather Map
  • Weather Widgets
  • user-avatar
    Login

    Hourly Weather Vitebsk

    Today, 25 September, Tuesday

    Time Temperature Precipitation Wind Pressure Humidity
    00:00 +6°C° 0 mm 5 mps 738 mmHg 92%
    01:00 +6°C° 0 mm 5 mps 739 mmHg 91%
    02:00 +6°C° 0 mm 5 mps 739 mmHg 91%
    03:00 +5°C° 0 mm 5 mps 740 mmHg 92%
    04:00 +3°C° 0 mm 5 mps 741 mmHg 93%
    05:00 +3°C° 0 mm 5 mps 741 mmHg 94%
    06:00 +3°C° 0 mm 5 mps 742 mmHg 92%
    07:00 +3°C° 0 mm 5 mps 742 mmHg 91%
    08:00 +3°C° 0 mm 6 mps 743 mmHg 89%
    09:00 +4°C° 0 mm 6 mps 744 mmHg 88%
    10:00 +4°C° 0 mm 6 mps 744 mmHg 86%
    11:00 +4°C° 0 mm 6 mps 745 mmHg 84%
    12:00 +5°C° 0 mm 6 mps 746 mmHg 79%
    13:00 +7°C° 0 mm 6 mps 746 mmHg 73%
    14:00 +8°C° 0 mm 6 mps 746 mmHg 68%
    15:00 +7°C° 0.1 mm 5 mps 747 mmHg 69%
    16:00 +7°C° 0.1 mm 5 mps 747 mmHg 70%
    17:00 +7°C° 0.1 mm 4 mps 748 mmHg 71%
    18:00 +6°C° 0 mm 4 mps 749 mmHg 73%
    19:00 +5°C° 0 mm 4 mps 749 mmHg 75%
    20:00 +4°C° 0 mm 4 mps 750 mmHg 77%
    21:00 +3°C° 0 mm 4 mps 751 mmHg 77%
    22:00 +3°C° 0 mm 4 mps 751 mmHg 77%
    23:00 +3°C° 0 mm 4 mps 752 mmHg 77%

    Tomorrow, 26 September, Wednesday

    Time Temperature Precipitation Wind Pressure Humidity
    00:00 +1°C° 0 mm 4 mps 753 mmHg 77%
    01:00 +1°C° 0 mm 4 mps 753 mmHg 77%
    02:00 +1°C° 0 mm 3 mps 754 mmHg 78%
    03:00 +1°C° 0 mm 3 mps 754 mmHg 81%
    04:00 +1°C° 0 mm 3 mps 754 mmHg 84%
    05:00 +1°C° 0 mm 3 mps 755 mmHg 87%
    06:00 +2°C° 0 mm 3 mps 755 mmHg 85%
    07:00 +2°C° 0 mm 3 mps 755 mmHg 83%
    08:00 +3°C° 0 mm 4 mps 755 mmHg 81%
    09:00 +5°C° 0 mm 4 mps 755 mmHg 72%
    10:00 +7°C° 0 mm 4 mps 755 mmHg 64%
    11:00 +9°C° 0 mm 5 mps 755 mmHg 55%
    12:00 +10°C° 0 mm 5 mps 754 mmHg 55%
    13:00 +10°C° 0 mm 5 mps 754 mmHg 54%
    14:00 +11°C° 0 mm 6 mps 753 mmHg 53%
    15:00 +10°C° 0 mm 5 mps 753 mmHg 57%
    16:00 +9°C° 0 mm 5 mps 752 mmHg 61%
    17:00 +9°C° 0 mm 5 mps 751 mmHg 65%
    18:00 +8°C° 0.4 mm 6 mps 751 mmHg 71%
    19:00 +7°C° 0.4 mm 6 mps 750 mmHg 77%
    20:00 +5°C° 0.4 mm 7 mps 749 mmHg 82%
    21:00 +5°C° 0.8 mm 7 mps 748 mmHg 84%
    22:00 +5°C° 0.8 mm 8 mps 747 mmHg 86%
    23:00 +5°C° 0.8 mm 8 mps 746 mmHg 88%

    Day after tomorrow, 27 September, Thursday

    Time Temperature Precipitation Wind Pressure Humidity
    00:00 +5°C° 0.9 mm 8 mps 745 mmHg 88%
    01:00 +6°C° 0.9 mm 8 mps 744 mmHg 89%
    02:00 +6°C° 0.9 mm 8 mps 743 mmHg 89%
    03:00 +6°C° 0.3 mm 8 mps 743 mmHg 90%
    04:00 +7°C° 0.3 mm 8 mps 742 mmHg 90%
    05:00 +7°C° 0.3 mm 8 mps 742 mmHg 90%
    06:00 +8°C° 0.7 mm 7 mps 742 mmHg 91%
    07:00 +9°C° 0.7 mm 7 mps 742 mmHg 91%
    08:00 +10°C° 0.7 mm 7 mps 742 mmHg 92%
    09:00 +10°C° 0.6 mm 6 mps 742 mmHg 88%
    10:00 +11°C° 0.6 mm 6 mps 743 mmHg 85%
    11:00 +12°C° 0.6 mm 5 mps 743 mmHg 81%
    12:00 +13°C° 0 mm 6 mps 743 mmHg 73%
    13:00 +14°C° 0 mm 6 mps 743 mmHg 64%
    14:00 +14°C° 0 mm 7 mps 744 mmHg 56%
    15:00 +13°C° 0 mm 6 mps 744 mmHg 58%
    16:00 +12°C° 0 mm 5 mps 744 mmHg 61%
    17:00 +11°C° 0 mm 4 mps 745 mmHg 63%
    18:00 +10°C° 0 mm 3 mps 745 mmHg 66%
    19:00 +9°C° 0 mm 3 mps 746 mmHg 68%
    20:00 +8°C° 0 mm 3 mps 746 mmHg 71%
    21:00 +7°C° 0 mm 3 mps 746 mmHg 73%
    22:00 +7°C° 0 mm 2 mps 746 mmHg 75%
    23:00 +7°C° 0 mm 2 mps 746 mmHg 77%

    28 September, Friday

    Time Temperature Precipitation Wind Pressure Humidity
    00:00 +7°C° 0 mm 3 mps 746 mmHg 81%
    01:00 +8°C° 0 mm 3 mps 745 mmHg 85%
    02:00 +7°C° 0 mm 4 mps 745 mmHg 90%
    03:00 +8°C° 0 mm 5 mps 744 mmHg 90%
    04:00 +9°C° 0 mm 5 mps 743 mmHg 90%
    05:00 +11°C° 0 mm 6 mps 743 mmHg 90%
    06:00 +11°C° 0.1 mm 7 mps 742 mmHg 89%
    07:00 +11°C° 0.1 mm 7 mps 741 mmHg 87%
    08:00 +12°C° 0.1 mm 7 mps 741 mmHg 86%
    09:00 +12°C° 0.3 mm 8 mps 740 mmHg 86%
    10:00 +12°C° 0.3 mm 8 mps 740 mmHg 87%
    11:00 +12°C° 0.3 mm 8 mps 740 mmHg 87%
    12:00 +12°C° 0.4 mm 8 mps 740 mmHg 86%
    13:00 +12°C° 0.4 mm 8 mps 740 mmHg 84%
    14:00 +12°C° 0.4 mm 8 mps 740 mmHg 83%
    15:00 +11°C° 0.3 mm 7 mps 740 mmHg 82%
    16:00 +10°C° 0.3 mm 6 mps 741 mmHg 80%
    17:00 +10°C° 0.3 mm 6 mps 742 mmHg 79%
    18:00 +8°C° 0 mm 5 mps 743 mmHg 82%
    19:00 +6°C° 0 mm 4 mps 744 mmHg 84%
    20:00 +5°C° 0 mm 3 mps 745 mmHg 87%
    21:00 +5°C° 0 mm 2 mps 745 mmHg 89%
    22:00 +4°C° 0 mm 2 mps 746 mmHg 90%
    23:00 +5°C° 0 mm 1 mps 746 mmHg 91%

    29 September, Saturday

    Time Temperature Precipitation Wind Pressure Humidity
    00:00 +5°C° 0 mm 1 mps 746 mmHg 91%
    01:00 +5°C° 0 mm 1 mps 747 mmHg 91%
    02:00 +5°C° 0 mm 1 mps 747 mmHg 90%
    03:00 +4°C° 0 mm 2 mps 747 mmHg 90%
    04:00 +4°C° 0 mm 2 mps 747 mmHg 90%
    05:00 +5°C° 0 mm 2 mps 747 mmHg 89%
    06:00 +4°C° 0 mm 3 mps 748 mmHg 87%
    07:00 +4°C° 0 mm 3 mps 748 mmHg 86%
    08:00 +5°C° 0 mm 4 mps 749 mmHg 84%
    09:00 +5°C° 0 mm 4 mps 749 mmHg 80%
    10:00 +6°C° 0 mm 4 mps 750 mmHg 77%
    11:00 +7°C° 0 mm 5 mps 750 mmHg 73%
    12:00 +7°C° 0.1 mm 5 mps 751 mmHg 71%
    13:00 +7°C° 0.1 mm 5 mps 751 mmHg 70%
    14:00 +7°C° 0.1 mm 5 mps 751 mmHg 68%
    15:00 +6°C° 0 mm 4 mps 752 mmHg 70%
    16:00 +7°C° 0 mm 3 mps 752 mmHg 71%
    17:00 +7°C° 0 mm 2 mps 752 mmHg 73%
    18:00 +5°C° 0 mm 2 mps 753 mmHg 76%
    19:00 +4°C° 0 mm 2 mps 754 mmHg 80%
    20:00 +4°C° 0 mm 1 mps 754 mmHg 83%
    21:00 +4°C° 0 mm 1 mps 754 mmHg 84%
    22:00 +4°C° 0 mm 1 mps 755 mmHg 85%
    23:00 +3°C° 0 mm 1 mps 755 mmHg 86%

    30 September, Sunday

    Time Temperature Precipitation Wind Pressure Humidity
    00:00 +3°C° 0 mm 1 mps 755 mmHg 86%
    01:00 +3°C° 0 mm 1 mps 755 mmHg 86%
    02:00 +2°C° 0 mm 1 mps 756 mmHg 86%
    03:00 +2°C° 0 mm 1 mps 756 mmHg 85%
    04:00 +2°C° 0 mm 1 mps 756 mmHg 85%
    05:00 +2°C° 0 mm 1 mps 756 mmHg 84%
    06:00 +3°C° 0 mm 1 mps 756 mmHg 80%
    07:00 +4°C° 0 mm 1 mps 756 mmHg 76%
    08:00 +4°C° 0 mm 2 mps 756 mmHg 72%
    09:00 +6°C° 0 mm 2 mps 756 mmHg 66%
    10:00 +7°C° 0 mm 2 mps 756 mmHg 61%
    11:00 +9°C° 0 mm 3 mps 756 mmHg 55%
    12:00 +9°C° 0 mm 3 mps 755 mmHg 54%
    13:00 +10°C° 0 mm 3 mps 755 mmHg 53%
    14:00 +10°C° 0 mm 3 mps 754 mmHg 52%
    15:00 +10°C° 0 mm 3 mps 754 mmHg 56%
    16:00 +9°C° 0 mm 3 mps 754 mmHg 61%
    17:00 +8°C° 0 mm 2 mps 753 mmHg 66%
    18:00 +7°C° 0 mm 2 mps 753 mmHg 66%
    19:00 +7°C° 0 mm 3 mps 753 mmHg 66%
    20:00 +5°C° 0 mm 3 mps 753 mmHg 66%
    21:00 +5°C° 0 mm 3 mps 753 mmHg 65%
    22:00 +5°C° 0 mm 3 mps 752 mmHg 64%
    23:00 +5°C° 0 mm 3 mps 752 mmHg 62%
    Show more